Date,TemperatureHighF,TemperatureAvgF,TemperatureLowF,DewpointHighF,DewpointAvgF,DewpointLowF,HumidityHigh,HumidityAvg,HumidityLow,PressureMaxIn,PressureMinIn,WindSpeedMaxMPH,WindSpeedAvgMPH,GustSpeedMaxMPH,PrecipitationSumIn
2013-1-1,56.0,52.5,49.0,48.0,42.1,34.0,79,68,51,30.14,30.08,7,2,8,0.00
2013-1-2,58.0,53.7,51.0,51.0,47.3,44.0,89,79,68,30.25,30.05,17,6,17,0.41
2013-1-3,62.0,55.8,50.0,48.0,43.9,42.0,79,64,55,30.46,30.24,9,4,10,0.02
2013-1-4,57.0,53.0,50.0,48.0,45.3,42.0,85,75,65,30.45,30.25,7,3,8,0.00
2013-1-5,56.0,51.8,49.0,49.0,46.0,43.0,87,81,72,30.26,30.06,7,2,9,0.00
2013-1-6,60.0,55.4,49.0,50.0,43.7,37.0,84,66,45,30.18,30.06,17,5,19,0.00
2013-1-7,63.0,55.6,49.0,51.0,45.1,38.0,89,69,41,30.22,30.03,8,3,10,0.00
2013-1-8,57.0,52.7,48.0,47.0,40.4,35.0,80,63,51,30.27,30.19,8,2,10,0.00
2013-1-9,57.0,54.2,52.0,49.0,46.6,43.0,81,76,65,30.19,30.10,5,2,7,0.00
2013-1-10,56.0,53.6,51.0,51.0,47.3,44.0,93,80,67,30.11,29.80,13,3,16,0.07
2013-1-11,57.0,53.4,49.0,51.0,47.3,41.0,93,80,58,29.84,29.72,21,6,28,0.13
2013-1-12,57.0,51.8,47.0,48.0,43.9,40.0,86,75,66,30.04,29.78,9,2,16,0.06
2013-1-13,58.0,55.5,52.0,54.0,48.0,42.0,92,76,62,30.03,29.84,22,9,26,0.25
2013-1-14,58.0,55.0,49.0,53.0,49.0,44.0,88,80,73,29.92,29.79,22,11,25,0.31
2013-1-15,55.0,50.2,44.0,48.0,44.4,41.0,90,81,64,29.91,29.63,17,3,17,0.07
2013-1-16,54.0,47.6,42.0,46.0,39.9,35.0,88,75,57,29.63,29.46,23,8,32,0.54
2013-1-17,53.0,48.5,42.0,49.0,43.5,38.0,95,84,63,29.49,29.29,16,3,20,0.72
2013-1-18,48.0,43.8,39.0,41.0,38.6,36.0,91,82,72,29.58,29.28,14,5,17,0.29
2013-1-19,56.0,47.4,43.0,52.0,41.0,33.0,92,79,64,29.66,29.57,18,6,23,0.15
2013-1-20,61.0,58.6,55.0,56.0,54.7,52.0,93,87,81,29.58,29.46,17,8,25,0.20
2013-1-21,56.0,52.9,50.0,53.0,48.5,43.0,94,85,66,29.57,29.34,23,6,27,0.67
2013-1-22,55.0,51.5,47.0,49.0,43.5,38.0,91,75,53,29.80,29.55,28,8,31,0.87
2013-1-23,55.0,49.7,44.0,48.0,44.6,41.0,93,83,73,29.81,29.58,20,6,24,1.05
2013-1-24,52.0,48.7,46.0,49.0,45.1,43.0,92,87,81,29.58,29.36,8,3,11,0.53
2013-1-25,54.0,49.2,45.0,45.0,39.6,35.0,88,70,55,29.59,29.38,15,6,20,0.03
2013-1-26,49.0,46.4,42.0,36.0,33.0,30.0,72,60,54,29.82,29.58,13,5,16,0.00
2013-1-27,53.0,47.5,42.0,41.0,33.9,29.0,72,60,45,29.97,29.82,14,4,17,0.00
2013-1-28,53.0,49.2,48.0,44.0,41.5,39.0,85,75,66,29.97,29.84,12,4,17,0.16
2013-1-29,58.0,51.5,47.0,47.0,41.6,37.0,84,69,55,30.21,29.97,15,5,17,0.09
2013-1-30,58.0,53.3,50.0,52.0,47.9,44.0,89,82,74,30.21,30.14,8,2,11,0.00
2013-1-31,60.0,55.4,53.0,53.0,51.0,49.0,92,85,75,30.19,30.09,7,2,10,0.00
2013-2-1,59.0,56.3,54.0,55.0,52.9,51.0,94,88,79,30.16,29.80,10,4,10,0.00
2013-2-2,60.0,56.6,49.0,55.0,52.9,43.0,94,88,76,29.80,29.29,29,12,32,0.24
2013-2-3,53.0,50.0,46.0,47.0,41.0,33.0,90,72,58,29.91,29.41,20,9,28,0.44
2013-2-4,54.0,47.8,42.0,40.0,33.2,29.0,74,58,40,30.11,29.91,14,5,22,0.02
2013-2-5,55.0,49.9,47.0,52.0,43.4,37.0,91,78,69,30.10,29.78,12,3,17,0.04
2013-2-6,56.0,53.3,49.0,51.0,45.4,34.0,87,75,56,29.78,29.48,20,7,24,0.09
2013-2-7,52.0,47.3,42.0,43.0,40.5,37.0,90,77,66,29.53,29.46,17,5,19,0.30
2013-2-8,49.0,45.1,42.0,40.0,35.1,31.0,85,68,54,29.71,29.50,10,4,13,0.13
2013-2-9,48.0,42.7,38.0,33.0,30.5,28.0,76,62,49,29.84,29.68,11,4,13,0.01
2013-2-10,48.0,42.1,37.0,34.0,29.7,26.0,75,62,44,29.94,29.82,10,4,13,0.00
2013-2-11,56.0,48.2,41.0,49.0,39.1,25.0,91,71,50,29.95,29.61,27,10,31,0.23
2013-2-12,53.0,47.8,44.0,49.0,43.3,39.0,90,85,70,29.63,29.55,16,6,23,0.76
2013-2-13,54.0,48.7,44.0,44.0,41.1,38.0,87,75,57,29.79,29.61,10,4,13,0.05
2013-2-14,56.0,49.6,44.0,44.0,39.5,37.0,88,69,53,29.95,29.79,14,4,17,0.07
2013-2-15,54.0,49.3,46.0,45.0,41.6,38.0,89,75,61,29.98,29.93,11,2,11,0.10
2013-2-16,55.0,50.0,46.0,45.0,40.9,37.0,92,71,56,30.02,29.93,10,3,12,0.12
2013-2-17,53.0,49.2,44.0,44.0,39.0,35.0,78,68,53,30.03,29.95,8,3,13,0.00
2013-2-18,52.0,48.1,45.0,43.0,40.5,38.0,86,75,62,29.96,29.90,12,4,14,0.14
2013-2-19,54.0,47.0,41.0,40.0,36.7,32.0,84,68,46,29.96,29.90,12,5,12,0.03
2013-2-20,53.0,49.5,46.0,41.0,37.8,36.0,76,64,54,29.97,29.88,9,3,10,0.00
2013-2-21,52.0,48.2,46.0,44.0,39.5,35.0,83,72,64,29.88,29.66,6,3,10,0.03
2013-2-22,56.0,51.0,45.0,53.0,46.7,39.0,93,85,73,29.66,29.46,23,6,23,0.62
2013-2-23,58.0,54.3,50.0,52.0,49.1,43.0,92,83,75,29.64,29.47,23,10,32,0.71
2013-2-24,56.0,48.8,44.0,50.0,39.7,31.0,90,71,48,29.92,29.63,21,7,23,0.15
2013-2-25,50.0,46.1,41.0,42.0,39.1,34.0,90,77,61,30.00,29.92,9,4,13,0.12
2013-2-26,53.0,49.1,46.0,43.0,40.2,37.0,82,71,59,30.08,29.97,9,3,9,0.05
2013-2-27,55.0,49.9,46.0,45.0,41.2,38.0,87,72,56,30.16,30.06,10,3,13,0.01
2013-2-28,56.0,51.4,47.0,45.0,41.1,38.0,78,68,58,30.20,30.10,8,3,9,0.00
2013-3-1,57.0,53.9,51.0,45.0,41.1,37.0,70,61,56,30.10,29.84,10,4,11,0.00
2013-3-2,55.0,52.8,49.0,45.0,41.2,36.0,69,65,57,29.95,29.75,27,9,33,0.00
2013-3-3,58.0,51.9,46.0,46.0,38.2,31.0,83,60,44,30.04,29.94,12,6,17,0.00
2013-3-4,57.0,52.7,49.0,47.0,44.8,42.0,86,75,63,30.16,30.04,8,3,10,0.00
2013-3-5,59.0,54.8,50.0,48.0,42.7,38.0,82,65,45,30.17,29.98,13,4,16,0.00
2013-3-6,62.0,57.9,55.0,54.0,48.0,37.0,90,72,43,29.99,29.73,30,11,36,0.30
2013-3-7,58.0,57.2,56.0,57.0,55.7,54.0,97,95,86,29.78,29.70,12,4,15,0.28
2013-3-8,58.0,56.6,55.0,56.0,55.3,54.0,98,96,90,29.78,29.65,13,5,19,0.48
2013-3-9,62.0,57.3,55.0,56.0,53.7,52.0,97,88,70,29.80,29.70,13,5,18,0.05
2013-3-10,59.0,57.1,54.0,56.0,54.9,53.0,97,92,86,29.72,29.60,20,6,21,0.07
2013-3-11,59.0,57.0,55.0,55.0,52.6,49.0,89,85,78,29.62,29.57,13,6,18,0.01
2013-3-12,57.0,54.3,50.0,52.0,49.3,47.0,92,83,74,29.60,29.49,23,8,30,0.49
2013-3-13,56.0,52.9,51.0,54.0,49.5,47.0,95,88,79,29.52,29.24,18,7,27,0.62
2013-3-14,52.0,49.8,48.0,49.0,46.9,45.0,95,90,82,29.26,29.06,22,5,24,0.94
2013-3-15,51.0,43.9,39.0,46.0,35.6,29.0,92,73,57,29.84,29.26,18,8,21,0.72
2013-3-16,50.0,45.3,42.0,34.0,30.4,28.0,64,56,45,30.11,29.84,11,4,12,0.01
2013-3-17,55.0,49.8,44.0,48.0,39.2,33.0,79,67,59,30.10,29.84,20,6,21,0.01
2013-3-18,59.0,56.0,52.0,56.0,51.3,43.0,92,84,62,29.84,29.56,30,13,31,0.20
2013-3-19,59.0,55.0,52.0,48.0,45.3,42.0,79,70,57,29.80,29.67,19,7,23,0.01
2013-3-20,61.0,53.4,49.0,52.0,43.5,32.0,95,72,34,29.80,29.65,7,3,10,0.44
2013-3-21,58.0,55.0,52.0,55.0,48.8,43.0,96,80,59,29.92,29.62,33,10,33,0.29
2013-3-22,59.0,54.0,49.0,50.0,46.8,42.0,86,77,62,29.91,29.86,10,3,12,0.00
2013-3-23,60.0,55.7,51.0,50.0,47.2,39.0,92,74,46,29.92,29.76,7,2,10,0.00
2013-3-24,70.0,62.8,55.0,53.0,44.2,33.0,74,53,25,29.77,29.44,21,6,24,0.00
2013-3-25,61.0,57.3,55.0,55.0,52.1,49.0,94,83,71,29.48,29.30,17,9,24,0.11
2013-3-26,59.0,54.9,52.0,53.0,50.0,47.0,92,84,75,29.57,29.48,19,6,25,0.09
2013-3-27,59.0,55.2,53.0,54.0,51.0,48.0,89,85,74,29.80,29.57,12,4,15,0.03
2013-3-28,59.0,56.0,52.0,56.0,52.5,48.0,92,88,81,29.88,29.78,10,3,12,0.02
2013-3-29,63.0,58.6,55.0,57.0,55.0,53.0,95,88,73,29.88,29.78,10,3,14,0.07
2013-3-30,59.0,57.7,56.0,57.0,55.7,54.0,96,93,89,29.79,29.52,18,6,22,0.44
2013-3-31,60.0,57.4,55.0,55.0,50.0,-99.9,93,80,64,29.69,29.53,17,10,28,0.57
2013-4-1,60.0,56.4,53.0,54.0,51.7,47.0,94,85,67,29.74,29.59,14,5,21,0.21
2013-4-2,59.0,56.4,52.0,56.0,53.0,49.0,94,89,76,29.59,29.37,23,10,25,0.30
2013-4-3,59.0,55.6,52.0,53.0,51.1,49.0,94,85,72,29.77,29.51,17,8,19,0.34
2013-4-4,66.0,58.7,54.0,54.0,49.9,41.0,89,74,42,29.80,29.54,14,4,14,0.01
2013-4-5,64.0,59.7,56.0,56.0,53.5,47.0,93,81,56,29.77,29.45,18,6,23,0.00
2013-4-6,63.0,58.4,54.0,55.0,53.1,48.0,93,83,63,29.78,29.68,11,4,12,0.01
2013-4-7,65.0,59.7,55.0,54.0,47.2,42.0,85,64,45,29.70,29.60,15,6,16,0.01
2013-4-8,59.0,56.0,52.0,52.0,45.7,40.0,84,69,51,29.88,29.70,14,4,17,0.00
2013-4-9,62.0,58.5,56.0,55.0,53.1,49.0,90,83,73,29.95,29.82,10,5,13,0.00
2013-4-10,62.0,58.7,56.0,56.0,54.5,51.0,90,86,82,30.01,29.89,12,6,16,0.00
2013-4-11,62.0,58.5,55.0,56.0,53.7,50.0,92,84,76,30.04,29.99,10,3,13,0.00
2013-4-12,63.0,59.5,58.0,57.0,54.8,54.0,89,85,77,30.02,29.96,10,6,13,0.00
2013-4-13,63.0,60.5,58.0,59.0,56.4,54.0,92,87,78,30.23,30.01,9,3,11,0.00
2013-4-14,69.0,61.8,56.0,59.0,55.3,38.0,93,81,42,30.29,30.22,12,3,14,0.00
2013-4-15,70.0,65.7,61.0,49.0,39.5,31.0,54,39,26,30.24,30.10,12,4,16,0.00
2013-4-16,66.0,62.7,60.0,59.0,53.0,44.0,89,71,51,30.15,30.09,9,2,11,0.00
2013-4-17,70.0,64.6,59.0,55.0,41.9,33.0,81,45,30,30.18,30.12,10,3,15,0.00
2013-4-18,72.0,64.0,59.0,58.0,45.4,29.0,85,54,25,30.14,30.02,10,3,13,0.00
2013-4-19,65.0,62.1,59.0,60.0,58.1,56.0,93,87,79,30.03,29.93,10,3,10,0.00
2013-4-20,65.0,62.6,59.0,60.0,57.6,54.0,90,84,76,30.00,29.95,13,5,15,0.00
2013-4-21,64.0,59.3,57.0,54.0,49.7,47.0,82,71,58,30.02,29.94,12,5,15,0.00
2013-4-22,61.0,56.3,50.0,51.0,48.3,45.0,90,75,61,30.02,29.89,14,4,20,0.45
2013-4-23,66.0,60.1,53.0,55.0,49.3,43.0,80,68,46,30.20,30.01,9,4,11,0.06
2013-4-24,77.0,68.9,61.0,54.0,50.9,48.0,73,54,38,30.27,30.19,13,6,15,0.00
2013-4-25,79.0,71.1,63.0,55.0,49.0,39.0,69,48,25,30.21,30.07,10,2,14,0.00
2013-4-26,76.0,67.1,58.0,57.0,53.0,45.0,83,62,33,30.11,29.94,12,4,17,0.21
2013-4-27,65.0,61.5,58.0,58.0,55.3,53.0,92,80,67,29.95,29.80,16,5,20,0.45
2013-4-28,77.0,68.4,60.0,61.0,53.8,42.0,91,63,30,29.95,29.85,7,2,8,0.01
2013-4-29,81.0,75.3,67.0,58.0,50.7,46.0,72,43,32,30.00,29.94,10,4,13,0.00
2013-4-30,81.0,74.4,67.0,56.0,50.0,43.0,66,43,31,30.05,29.97,11,3,15,0.00
2013-5-1,79.0,73.5,69.0,61.0,50.3,41.0,67,45,26,30.05,29.93,10,3,17,0.00
2013-5-2,75.0,70.3,65.0,63.0,58.5,52.0,83,67,53,29.97,29.86,12,4,18,0.02
2013-5-3,74.0,68.1,62.0,62.0,58.3,54.0,90,72,49,29.93,29.88,8,3,10,0.01
2013-5-4,79.0,70.1,63.0,64.0,58.3,54.0,88,68,43,29.98,29.86,9,3,15,0.00
2013-5-5,78.0,70.4,64.0,63.0,59.5,54.0,83,69,44,30.00,29.88,13,5,18,0.01
2013-5-6,68.0,65.4,62.0,63.0,59.5,55.0,89,81,72,29.99,29.85,15,6,19,0.04
2013-5-7,67.0,63.2,58.0,60.0,57.6,54.0,91,82,75,30.01,29.96,11,4,15,0.19
2013-5-8,68.0,64.7,61.0,61.0,58.9,57.0,89,82,74,29.99,29.89,11,4,13,0.02
2013-5-9,71.0,65.9,62.0,62.0,59.9,59.0,90,82,67,29.97,29.90,9,3,14,0.00
2013-5-10,69.0,64.9,62.0,63.0,58.6,-99.9,92,84,64,29.97,29.91,11,3,12,0.00
2013-5-11,69.0,65.5,62.0,62.0,59.1,53.0,89,80,68,29.94,29.85,16,4,18,0.00
2013-5-12,68.0,63.4,60.0,59.0,54.8,-99.9,83,76,64,29.89,29.82,15,5,17,0.00
2013-5-13,70.0,64.7,59.0,60.0,56.4,47.0,89,75,55,29.94,29.84,14,4,19,0.00
2013-5-14,71.0,64.5,56.0,57.0,48.5,41.0,80,57,39,29.98,29.88,13,5,15,0.00
2013-5-15,68.0,64.8,61.0,60.0,56.2,52.0,85,74,57,29.88,29.69,11,3,12,0.00
2013-5-16,79.0,67.6,66.0,64.0,42.2,-99.9,90,65,48,29.69,29.48,15,6,22,0.06
2013-5-17,68.0,64.8,62.0,64.0,54.5,-99.9,93,79,65,29.93,29.54,15,6,20,0.05
2013-5-18,81.0,69.9,60.0,60.0,52.2,40.0,82,57,29,29.98,29.82,8,3,11,0.01
2013-5-19,73.0,66.3,62.0,63.0,56.6,50.0,88,71,59,30.06,29.80,17,7,24,0.00
2013-5-20,68.0,64.5,60.0,59.0,55.4,51.0,83,73,57,30.10,30.05,11,4,15,0.00
2013-5-21,75.0,65.1,58.0,59.0,51.7,44.0,85,64,40,30.07,29.78,10,4,17,0.09
2013-5-22,81.0,70.9,62.0,63.0,57.5,53.0,89,64,46,29.78,29.30,19,6,26,0.56
2013-5-23,67.0,63.1,59.0,60.0,57.2,55.0,91,82,67,29.67,29.34,19,8,22,0.57
2013-5-24,67.0,63.4,62.0,58.0,53.6,49.0,85,71,56,29.88,29.67,24,11,26,0.01
2013-5-25,63.0,59.2,54.0,54.0,49.6,46.0,88,71,59,29.91,29.85,17,7,23,0.14
2013-5-26,63.0,60.5,59.0,52.0,47.9,43.0,77,63,53,30.01,29.85,21,9,25,0.05
2013-5-27,65.0,60.5,56.0,52.0,50.5,49.0,80,70,61,30.02,29.89,10,3,13,0.00
2013-5-28,77.0,65.0,56.0,60.0,51.0,45.0,82,63,34,29.89,29.61,11,4,14,0.00
2013-5-29,66.0,63.0,60.0,60.0,55.7,48.0,87,77,61,29.75,29.65,12,5,17,0.00
2013-5-30,64.0,59.2,54.0,54.0,50.7,47.0,88,74,60,29.78,29.71,15,5,24,0.15
2013-5-31,63.0,59.7,54.0,59.0,53.5,48.0,88,80,69,29.79,29.71,17,6,21,0.24
2013-6-1,65.0,60.6,57.0,58.0,54.8,52.0,92,82,70,29.76,29.70,15,4,16,0.38
2013-6-2,66.0,61.1,56.0,60.0,56.5,53.0,93,85,77,29.93,29.76,10,3,12,0.25
2013-6-3,68.0,64.6,61.0,61.0,58.6,55.0,92,81,70,29.93,29.87,10,4,17,0.01
2013-6-4,69.0,64.3,60.0,61.0,57.8,55.0,91,80,71,29.97,29.89,10,2,15,0.00
2013-6-5,69.0,64.4,61.0,61.0,59.8,58.0,93,85,72,30.04,29.95,10,3,16,0.00
2013-6-6,72.0,66.4,60.0,64.0,61.0,58.0,95,83,70,30.05,29.97,8,3,10,0.00
2013-6-7,78.0,70.4,64.0,63.0,58.5,55.0,85,67,48,29.98,29.94,15,4,18,0.00
2013-6-8,74.0,68.6,66.0,67.0,63.7,59.0,91,84,74,29.99,29.92,9,3,12,0.00
2013-6-9,73.0,68.7,65.0,66.0,62.7,52.0,93,82,54,29.97,29.87,8,2,12,0.00
2013-6-10,71.0,67.9,65.0,64.0,60.5,55.0,92,78,58,29.89,29.83,10,4,13,0.00
2013-6-11,71.0,66.9,63.0,64.0,60.4,56.0,91,80,63,29.92,29.85,14,4,18,0.02
2013-6-12,76.0,69.8,63.0,63.0,58.9,50.0,93,70,44,29.98,29.91,16,5,17,0.03
2013-6-13,81.0,72.8,65.0,58.0,51.9,46.0,57,48,37,29.99,29.95,13,5,17,0.01
2013-6-14,75.0,71.1,67.0,68.0,61.5,53.0,87,72,54,30.02,29.96,10,3,10,0.00
2013-6-15,76.0,71.0,68.0,68.0,65.1,60.0,95,82,61,30.06,30.01,9,3,10,0.00
2013-6-16,78.0,72.4,68.0,68.0,65.9,62.0,92,81,60,30.07,30.01,8,2,10,0.00
2013-6-17,83.0,75.4,70.0,71.0,66.6,63.0,88,75,59,30.04,29.96,6,2,10,0.00
2013-6-18,84.0,77.8,72.0,72.0,68.5,63.0,84,73,62,29.99,29.96,7,2,9,0.00
2013-6-19,85.0,80.1,76.0,71.0,66.0,60.0,70,62,52,30.01,29.96,9,2,11,0.00